RH
93 92 92 91 90 92 88 90 94 92 90 87 89 90 91 91 91 91 89 89 89 90 92 94 96 95 93 90 77 22 31 26 47 68 47 54 56 50 52 46 41 50 43 37 37 38 36
92 92 92 92 92 91 92 92 95 96 94 91 89 91 91 91 90 90 90 92 90 93 93 96 97 90 82 92 23 23 26 45 49 67 47 49 54 45 40 40 42 35 34 33 34 35 36
92 92 91 93 94 96 95 95 95 95 95 96 96 94 91 91 90 88 86 54 58 66 88 98 99 92 77 72 29 58 54 48 47 54 53 46 38 38 37 38 34 34 40 36 36 35 38
91 93 98 97 96 93 92 92 90 91 92 90 90 89 90 91 88 74 64 39 46 49 50 62 96 85 88 53 48 47 33 54 58 56 47 38 42 36 37 33 36 35 36 43 29 33 32
92 93 95 93 92 88 90 88 88 89 92 89 90 93 93 90 59 73 64 41 41 57 74 82 88 80 88 52 39 35 33 50 67 65 60 51 30 41 35 46 52 50 54 52 37 31 28
96 95 92 90 93 91 90 84 86 88 87 90 91 94 92 84 52 67 56 28 40 62 79 95 92 92 66 49 35 32 31 37 60 48 39 40 45 52 57 51 58 48 55 46 40 33 34
97 93 91 85 88 90 89 84 86 90 91 91 90 92 90 79 67 64 53 42 70 46 61 64 67 71 54 41 36 33 32 45 41 46 64 53 62 67 54 43 38 34 39 38 29 29 34
93 92 88 89 90 91 88 85 86 84 83 88 92 82 86 81 79 62 65 84 72 81 92 62 64 70 63 59 52 44 36 50 57 65 58 59 69 45 43 45 46 45 45 40 34 35 36
94 89 86 89 87 90 84 91 82 85 87 91 90 88 80 82 69 60 74 78 77 71 87 75 62 62 50 57 62 56 43 45 54 67 66 64 54 43 49 48 50 49 48 41 38 34 37
90 89 85 84 87 88 84 83 86 88 90 91 88 88 90 74 62 81 70 68 78 76 95 52 54 51 46 49 60 44 42 42 48 60 63 65 50 52 54 54 48 55 38 40 39 48 62
88 85 86 87 79 81 84 85 88 89 89 80 84 92 90 74 74 84 67 77 81 81 31 48 51 34 35 48 46 43 39 46 60 58 57 63 48 60 64 54 46 51 39 41 45 53 51
86 88 87 86 84 84 84 82 89 90 86 66 60 75 61 68 73 70 68 80 81 80 61 65 53 47 45 45 47 38 38 41 51 64 57 59 47 53 48 46 44 42 46 42 47 58 72
86 84 83 83 89 88 89 88 92 91 92 65 48 55 61 66 80 60 54 84 65 66 57 71 63 48 50 49 46 47 48 68 89 89 82 69 62 48 45 53 46 44 52 86 76 80 76
90 85 85 85 91 93 92 92 92 92 91 62 43 51 52 57 57 58 66 74 68 70 85 59 54 57 64 52 52 54 58 58 83 81 87 93 75 64 39 52 63 61 52 80 84 72 60
87 87 91 92 93 94 93 91 91 94 76 52 38 42 48 46 51 55 78 92 91 80 65 62 59 67 64 55 65 66 64 67 85 83 84 90 70 43 42 56 62 99 68 49 60 51 68
84 90 94 94 95 95 94 92 93 93 79 51 58 62 47 47 44 50 76 80 70 64 56 55 77 65 83 69 82 74 69 54 63 65 68 82 91 57 42 39 53 82 97 88 65 93 92
92 90 96 96 96 95 94 94 94 92 73 55 65 72 40 46 36 78 87 78 68 59 55 61 63 76 74 86 81 80 70 54 55 66 67 70 80 56 54 51 47 55 91 90 96 96 85
91 93 93 94 95 95 95 94 94 90 80 64 78 46 46 42 72 90 84 73 55 68 54 57 59 66 69 75 90 88 80 54 53 66 87 80 91 94 63 38 72 88 95 96 93 89 93
92 92 92 94 95 95 94 95 94 94 94 90 95 93 52 44 85 91 79 75 66 62 62 62 66 57 72 79 94 84 78 58 60 69 81 76 88 96 54 46 48 65 75 94 95 97 95
92 92 91 94 93 95 95 94 95 92 95 84 90 93 88 88 79 83 97 86 75 57 64 63 69 67 84 87 77 88 80 66 64 66 57 70 98 88 91 71 73 88 79 89 94 96 94
92 93 93 93 93 95 94 90 89 89 65 70 93 84 78 96 87 90 93 87 81 81 66 69 82 73 87 96 83 86 71 70 61 55 65 71 92 88 83 82 80 92 86 88 87 90 91
95 94 97 98 97 100 100 99 99 95 60 74 94 94 88 90 88 88 82 88 83 81 95 80 87 74 87 96 87 96 91 81 81 72 75 89 94 88 91 70 88 93 89 91 82 87 88
98 96 91 86 90 98 100 100 98 97 87 85 78 75 90 83 87 92 86 79 77 88 77 72 77 88 96 79 84 86 83 79 84 90 92 96 96 96 94 72 92 95 94 84 88 91 94
90 94 95 95 90 91 94 96 90 93 92 94 89 87 98 94 97 80 71 71 82 94 97 78 76 97 77 69 78 80 86 94 96 95 97 97 96 96 96 94 99 95 91 85 90 92 92
98 86 92 88 88 84 89 92 91 87 87 87 88 96 100 97 95 86 87 90 90 88 93 78 70 71 69 93 92 93 81 70 94 89 78 83 98 96 96 95 94 93 90 94 96 98 96
92 92 93 93 85 92 92 81 84 84 86 85 82 80 99 99 90 81 97 94 97 98 92 80 72 67 85 92 89 97 98 95 92 78 54 69 73 96 95 96 99 95 86 91 96 97 91
95 94 94 91 92 85 82 85 83 80 79 84 85 88 99 99 97 97 97 97 96 96 99 90 85 92 81 98 96 96 98 94 99 99 97 87 91 100 100 100 100 90 92 94 97 98 94
95 95 94 93 92 90 88 85 80 74 74 79 81 100 98 99 95 93 93 92 92 94 98 88 87 88 94 94 97 97 98 96 92 94 100 99 100 100 95 99 99 87 80 90 98 95 96
90 90 91 91 89 87 84 82 80 76 96 74 79 76 92 96 97 96 88 82 96 97 97 96 97 96 96 96 95 96 93 89 92 98 81 98 100 100 99 98 98 96 97 96 95 95 93
Wind_Speed
13 14 15 16 17 17 18 19 19 20 21 22 24 25 27 29 31 32 33 34 31 29 27 24 18 11 4 5 12 13 12 14 18 28 24 10 7 8 8 7 8 7 16 7 15 17 17
13 14 15 16 16 17 18 19 20 21 22 24 26 28 30 33 34 36 38 36 32 30 28 21 15 7 4 9 8 10 9 10 18 28 17 13 9 8 7 6 10 6 16 20 17 18 8
13 14 15 15 16 18 19 20 22 23 24 25 27 30 32 34 35 39 41 36 36 34 26 19 11 11 10 18 2 4 5 12 20 26 6 19 12 10 7 5 6 5 13 14 10 6 8
14 14 15 17 18 20 21 22 23 24 24 26 27 29 33 35 38 44 38 35 40 21 10 4 7 13 8 9 11 12 18 10 12 19 14 13 14 4 4 4 5 3 4 8 7 13 8
14 15 16 17 19 20 21 22 23 24 25 26 28 29 32 35 43 45 33 36 25 9 6 5 9 6 9 10 2 8 12 7 9 9 9 9 3 6 3 4 5 6 11 11 5 8 7
14 15 17 18 19 20 21 23 24 24 25 27 29 30 33 37 43 37 33 27 8 4 2 5 5 3 6 5 3 3 5 16 4 4 2 6 4 4 4 7 21 19 13 5 7 7 8
14 16 17 18 19 20 21 23 24 25 27 28 30 32 34 37 39 26 30 8 6 5 7 6 9 8 13 11 11 4 4 6 5 4 8 4 5 18 24 27 23 17 9 21 4 9 7
15 16 17 18 18 20 21 23 24 26 26 28 31 35 36 38 34 19 21 6 7 9 12 17 15 10 18 9 5 8 5 6 6 9 5 4 23 16 12 16 18 20 22 25 13 6 5
14 16 16 17 19 19 22 23 24 25 27 29 32 35 38 34 18 19 8 15 21 15 6 8 4 4 2 6 4 6 3 1 3 5 9 16 11 11 15 17 19 22 26 20 23 1 8
14 14 16 16 18 19 21 23 25 26 28 30 33 35 32 31 4 23 3 29 23 8 4 5 2 5 9 5 4 5 4 5 4 8 9 13 19 22 14 18 14 23 17 20 17 5 8
13 14 15 16 18 19 20 22 25 27 30 34 36 33 27 14 11 7 20 28 20 3 4 5 4 8 14 5 9 18 10 5 11 8 3 7 5 4 14 23 14 19 10 17 15 11 4
13 14 15 16 18 19 20 22 24 28 33 37 37 27 18 13 10 18 31 21 1 1 6 9 5 15 15 9 7 13 10 9 5 8 13 19 12 6 4 7 7 14 8 4 2 4 8
12 13 15 16 17 19 20 22 25 28 31 36 31 18 15 15 13 29 31 3 3 2 10 9 11 17 7 13 9 10 10 7 5 8 9 14 7 5 3 14 17 9 1 4 7 7 13
12 13 15 17 17 18 20 22 24 27 30 34 24 14 19 18 32 25 11 4 5 5 4 9 11 10 3 13 6 11 9 4 6 3 4 7 9 12 19 5 7 16 15 10 13 9 10
12 13 14 15 16 18 20 21 23 25 30 32 18 15 18 31 29 18 4 5 2 4 8 9 9 4 3 12 3 7 5 2 2 3 2 5 6 24 18 12 5 7 7 17 21 15 4
12 13 13 14 16 17 18 20 22 25 29 26 9 9 13 31 20 12 5 4 0 1 9 4 3 3 7 8 3 5 4 5 2 1 5 4 8 8 15 8 5 5 4 5 10 11 12
11 12 12 13 14 15 17 20 21 24 29 23 6 4 14 25 11 5 3 3 3 4 7 4 4 6 6 6 5 4 6 8 3 3 4 5 1 10 11 5 16 9 1 5 6 5 7
10 12 13 14 15 16 17 18 20 24 28 18 4 2 15 20 4 2 2 6 5 5 4 4 5 3 5 6 5 4 6 5 6 4 5 4 4 4 13 19 7 10 6 3 0 5 3
11 12 13 14 15 16 17 18 19 19 19 8 2 2 7 7 3 3 4 4 3 5 6 3 5 3 3 5 5 5 5 3 5 4 3 3 2 4 9 5 5 7 4 0 6 1 2
10 11 12 13 14 16 17 18 20 20 18 5 3 4 4 4 1 1 4 4 4 5 5 6 7 3 7 7 6 8 10 6 7 12 17 9 2 6 6 12 6 6 11 15 2 3 3
10 11 11 13 15 16 17 19 20 20 17 3 3 1 2 4 2 3 2 3 6 6 3 5 3 5 13 5 11 5 8 15 8 8 4 0 6 4 10 9 2 9 11 15 13 10 3
10 11 12 14 15 15 17 18 19 20 16 4 2 2 2 5 5 3 2 3 3 5 3 7 5 15 11 9 12 19 14 14 12 5 1 2 8 3 13 10 14 14 15 11 15 14 12
11 11 12 12 14 17 17 16 16 16 13 4 3 2 1 4 3 3 3 4 7 9 6 6 12 14 9 11 9 18 18 19 17 16 18 5 3 2 5 3 11 8 14 12 15 19 7
10 12 12 12 12 14 15 15 15 16 13 8 4 4 2 5 2 5 8 11 12 9 6 11 7 2 6 16 15 10 4 6 4 9 5 5 3 2 3 3 3 7 9 14 17 15 14
11 13 14 12 11 12 14 13 15 15 14 13 11 5 2 4 4 9 9 6 7 6 6 6 7 5 13 6 5 7 5 5 3 7 12 10 3 3 3 4 4 3 9 6 6 8 12
11 12 11 10 9 11 13 15 15 16 16 16 16 11 4 5 5 5 6 7 5 2 5 4 6 10 5 2 3 3 2 2 4 10 14 10 11 3 4 3 2 4 16 8 3 2 11
11 12 12 12 13 14 15 16 16 17 16 17 14 13 6 3 9 9 6 9 6 3 1 3 7 7 4 4 3 3 3 3 4 5 9 6 6 5 5 4 2 11 14 5 3 3 8
11 12 13 13 14 15 16 16 16 16 15 16 16 11 9 2 8 15 10 9 5 4 4 5 5 4 4 5 3 3 3 4 4 5 5 4 5 4 4 3 2 18 5 5 3 3 5
12 13 14 15 16 16 16 15 15 14 11 15 5 15 9 8 3 15 20 20 9 10 3 3 2 4 3 3 2 2 4 5 6 2 6 4 1 2 3 1 0 4 6 5 4 4 7
Wind_Direction
28 24 20 16 12 6 2 358 354 355 353 349 345 343 341 338 333 329 325 320 316 314 310 306 304 303 315 238 253 240 253 310 163 178 182 178 173 176 186 199 227 242 248 253 252 251 260
28 22 18 12 10 4 0 357 353 351 350 347 345 342 340 337 334 330 325 319 315 312 305 296 287 258 197 259 269 308 283 201 189 181 186 168 206 199 213 211 189 223 231 251 253 261 252
23 16 15 10 5 0 356 353 350 349 347 345 343 339 338 335 334 331 327 322 321 318 305 288 260 212 226 246 200 67 185 196 196 197 178 201 204 166 188 279 242 241 273 277 244 231 228
19 11 8 6 1 356 351 347 345 343 341 341 341 339 335 334 333 335 331 324 323 325 309 251 193 179 249 279 300 277 246 252 214 213 222 214 229 197 188 285 341 268 260 247 217 201 220
11 8 6 5 0 354 351 348 345 343 343 341 339 338 337 335 338 337 333 328 323 345 353 135 135 187 262 319 229 268 244 186 206 212 236 242 187 202 153 173 312 218 251 231 259 199 200
8 7 6 3 357 353 350 347 344 342 343 341 338 338 339 338 340 342 339 333 330 344 30 176 346 267 279 332 306 273 223 209 174 145 151 194 203 218 145 183 229 226 232 237 218 211 218
9 6 2 0 356 352 351 347 346 346 345 344 339 338 340 340 340 352 354 5 15 354 25 314 298 284 304 319 317 279 210 136 124 144 193 197 199 215 209 216 236 265 253 251 242 213 224
8 6 1 359 358 353 349 347 347 347 344 341 340 341 341 338 340 9 41 65 38 288 295 292 261 255 268 269 284 299 216 172 167 209 141 233 235 230 224 225 233 239 253 254 261 242 259
6 3 1 357 354 352 350 349 347 346 344 343 341 341 341 341 348 354 37 38 350 341 282 300 229 228 331 143 262 272 203 227 236 223 207 221 232 217 217 229 227 236 237 249 250 232 252
2 360 0 356 355 354 353 350 348 347 344 344 343 340 342 343 39 345 60 339 340 338 317 278 60 5 356 292 265 251 226 205 232 230 215 254 258 263 260 238 214 247 229 247 252 182 242
4 359 359 358 357 356 355 353 350 346 345 347 345 342 343 5 329 339 321 329 330 164 346 14 38 32 323 3 288 359 337 312 254 245 163 235 306 274 256 253 212 253 208 239 234 228 251
0 0 0 359 359 359 359 354 349 346 345 349 349 353 0 9 349 338 341 332 95 101 249 5 44 343 348 359 15 348 5 6 322 310 270 278 280 283 239 293 241 261 258 221 126 171 225
2 1 1 360 357 355 353 348 346 345 343 348 354 6 13 19 336 339 338 18 30 98 354 10 336 328 329 358 348 3 358 6 30 346 1 313 272 248 242 279 278 242 249 246 228 228 243
5 3 1 357 357 354 353 349 347 344 345 350 356 8 17 354 344 336 339 54 66 2 7 315 325 309 16 16 333 345 347 333 69 66 299 353 320 23 334 293 284 284 238 227 251 238 245
5 3 1 359 359 357 356 351 348 347 348 351 356 11 0 351 349 348 55 52 60 350 330 317 320 318 315 341 315 357 315 292 124 35 44 312 283 315 314 336 323 333 245 242 250 251 217
7 8 7 3 1 360 356 354 353 351 349 354 357 343 357 350 350 8 58 89 314 351 325 292 318 300 317 328 334 352 295 263 32 272 191 243 284 301 304 291 274 259 335 286 214 225 230
14 11 13 9 6 4 0 359 357 356 354 359 25 27 353 357 359 42 72 340 310 325 345 304 301 299 298 324 287 264 257 290 228 259 247 281 265 297 309 349 305 300 26 351 319 313 247
18 12 10 11 9 8 4 3 2 1 358 8 25 25 358 358 44 28 15 311 300 295 318 286 304 255 273 315 285 261 241 213 319 353 310 242 215 270 285 293 57 43 45 205 27 314 277
29 22 15 13 8 5 5 4 3 4 6 336 20 285 354 14 57 342 298 287 265 320 310 323 291 306 356 282 306 266 281 291 336 3 273 298 280 313 316 287 15 2 329 358 269 231 322
27 23 14 11 9 7 7 6 4 5 358 2 56 2 328 34 33 28 323 280 329 293 277 325 272 299 333 302 219 282 285 301 326 291 287 291 234 187 231 261 318 338 6 335 303 220 69
28 21 14 9 9 9 7 6 4 360 359 18 44 4 146 312 319 311 243 284 327 330 276 304 300 329 322 293 312 248 306 310 299 278 13 68 250 195 247 259 61 30 49 35 62 12 57
25 18 12 8 9 13 13 9 5 2 6 59 85 50 314 273 274 247 293 253 285 285 274 302 269 318 307 278 272 293 300 296 278 305 38 242 265 237 279 257 100 62 18 55 34 14 62
17 10 8 2 2 6 9 8 6 6 17 20 345 299 208 262 277 65 239 222 303 305 260 229 302 312 301 291 299 280 270 272 264 279 286 258 232 225 265 185 144 35 360 76 67 36 17
9 2 359 358 358 3 7 10 11 12 12 355 295 288 248 271 214 225 270 277 277 275 270 284 299 162 279 316 298 285 314 281 251 268 312 283 248 222 265 14 114 119 43 71 81 45 26
11 7 2 359 358 360 2 5 3 0 358 349 316 288 227 263 244 280 258 238 289 270 260 274 303 312 315 313 328 343 344 9 45 58 29 18 312 307 61 52 126 118 27 352 8 41 18
6 2 7 5 348 354 352 351 348 347 345 342 319 289 269 284 260 270 273 238 275 305 336 293 334 323 326 306 311 327 293 322 357 340 18 27 27 79 355 114 162 31 335 320 311 49 10
357 355 348 344 338 335 335 336 337 335 335 339 313 307 282 262 21 346 17 355 5 26 288 329 338 332 14 358 344 354 332 342 28 21 340 356 359 48 6 86 79 340 323 312 102 301 355
1 352 346 342 338 336 335 335 331 335 334 342 314 14 7 34 24 26 28 22 346 5 4 309 348 359 344 24 33 329 20 43 81 32 10 44 344 14 333 71 26 344 21 62 301 329 357
358 351 349 347 346 345 343 342 342 341 350 346 336 334 3 68 97 52 38 27 10 344 306 325 268 344 311 348 356 12 31 18 13 60 10 33 28 346 44 92 37 353 52 22 17 5 358